SL-16 DEB

Satellite information

Favourite Embed

Satellite Type and Status

DEBRISIN ORBIT

Key statistics

Satellite SL-16 DEB at a glance.

Uptime

11732

Days in orbit

Revolutions

≈ 13.7

Per day

Orbit

LEO

Low Earth Orbit

Inclination

71.0

Latest

Satellite identification and parameters

Extended collection of information and parameters for SL-16 DEB.

Object identification

Identified? True

Debris? True

Object name: SL-16 DEB

International designator: 1993-016U

Object number (NORAD): 22610

Object ID (CCSDS): 22610

Country: COMMONWEALTH OF INDEPENDENT STATES (CIS)

Current information (Y/N): Y

RCS size: SMALL

Orbital parameters

Period: 105.273 minutes

Inclination: 70.9991 deg

SMA: 7385.378 km

Apoapsis: 1164.35 km

Periapsis: 850.135 km

RAAN: 175.1694 deg

Eccentricy: 0.0212728

Argument of periapsis: 159.3785 deg

Mean anomaly: 201.6064 deg

Mean motion: 13.67866427 rev/day

Mean motion (dot): 0.00000016 rev/day2

B* drag term: 0.000057739 1/REarth

Two-line elements (TLE)

Creation date: May 9, 2025, 2:46 a.m.

Reference frame: TEME

Reference center: EARTH

Epoch: May 8, 2025, 12:55 p.m. UTC

TLE line 0: 0 SL-16 DEB

TLE line 1: 1 22610U 93016U 25128.53882080 .00000016 00000-0 57739-4 0 9994

TLE line 2: 2 22610 70.9991 175.1694 0212728 159.3785 201.6064 13.67866427603278

Live tracking on map

Real-time ground track for satellite SL-16 DEB.

In-orbit conjunctions

A list of the most updated potential collisions computed for object SL-16 DEB.

Target Orbit TCA Probability of collision Miss distance Type
DODECAPOLE 2 SSO 2024-11-17 20:22:04 0.0001180618 459.0 (m) PAYLOAD

Associated space launch

Second generation ELING satellite

SL-16 DEB was lifted into orbit during the mission ‘Zenit-2 | Tselina-2 13’, on board a Zenit-2 space rocket.

The launch took place on March 26, 1993, 2:21 a.m. from 45/1.

For more information about the launch, click the button.

Launch to space Zenit-2 | Tselina-2 13
Zenit-2 | Tselina-2 13

Agency: N/A

Status: Launch Successful

Launch date: March 26, 1993, 2:21 a.m. UTC

Rocket: Zenit-2

Launch pad: 45/1

Location: Baikonur Cosmodrome, Republic of Kazakhstan

...

Latest news about this satellite

There are no fresh news available about this satellite. Check back as we update our databases every day.


Newsletter sign-up

Weekly statistics, charts and insights to help you stay on top of the space industry.